• In Netherlands
  • List of Countries
  • For 7 days
  • Water Temperature
  • Satellite Maps
  • Weather Map
  • Weather Widgets
  • user-avatar
    Login

    Hourly Weather Zhlobin

    Today, 21 September, Thursday

    Time Temperature Precipitation Wind Pressure Humidity
    00:00 +13°C° 0.2 mm 5 mps 750 mmHg 78%
    01:00 +13°C° 0.2 mm 5 mps 749 mmHg 81%
    02:00 +12°C° 0.2 mm 5 mps 749 mmHg 84%
    03:00 +12°C° 0.5 mm 5 mps 749 mmHg 86%
    04:00 +12°C° 0.5 mm 5 mps 749 mmHg 88%
    05:00 +12°C° 0.5 mm 5 mps 748 mmHg 89%
    06:00 +11°C° 0.2 mm 6 mps 748 mmHg 88%
    07:00 +13°C° 0.2 mm 6 mps 748 mmHg 87%
    08:00 +13°C° 0.2 mm 6 mps 748 mmHg 85%
    09:00 +15°C° 0.1 mm 6 mps 747 mmHg 81%
    10:00 +16°C° 0.1 mm 6 mps 747 mmHg 77%
    11:00 +19°C° 0.1 mm 6 mps 747 mmHg 73%
    12:00 +19°C° 0.2 mm 6 mps 747 mmHg 72%
    13:00 +20°C° 0.2 mm 6 mps 747 mmHg 71%
    14:00 +21°C° 0.2 mm 6 mps 747 mmHg 70%
    15:00 +21°C° 0.3 mm 5 mps 747 mmHg 73%
    16:00 +20°C° 0.3 mm 5 mps 747 mmHg 75%
    17:00 +20°C° 0.3 mm 5 mps 747 mmHg 78%
    18:00 +20°C° 0.3 mm 6 mps 747 mmHg 76%
    19:00 +20°C° 0.3 mm 6 mps 747 mmHg 75%
    20:00 +20°C° 0.3 mm 7 mps 747 mmHg 74%
    21:00 +19°C° 0.3 mm 6 mps 747 mmHg 76%
    22:00 +19°C° 0.3 mm 6 mps 747 mmHg 77%
    23:00 +17°C° 0.3 mm 6 mps 747 mmHg 79%

    Tomorrow, 22 September, Friday

    Time Temperature Precipitation Wind Pressure Humidity
    00:00 +17°C° 0.3 mm 6 mps 747 mmHg 79%
    01:00 +16°C° 0.3 mm 6 mps 748 mmHg 80%
    02:00 +16°C° 0.3 mm 6 mps 748 mmHg 80%
    03:00 +16°C° 0 mm 6 mps 748 mmHg 80%
    04:00 +15°C° 0 mm 6 mps 748 mmHg 80%
    05:00 +15°C° 0 mm 6 mps 748 mmHg 80%
    06:00 +16°C° 0 mm 6 mps 748 mmHg 79%
    07:00 +16°C° 0 mm 6 mps 749 mmHg 77%
    08:00 +17°C° 0 mm 6 mps 749 mmHg 75%
    09:00 +19°C° 0 mm 6 mps 750 mmHg 70%
    10:00 +21°C° 0 mm 6 mps 750 mmHg 66%
    11:00 +22°C° 0 mm 5 mps 750 mmHg 61%
    12:00 +23°C° 0 mm 5 mps 750 mmHg 59%
    13:00 +23°C° 0 mm 5 mps 750 mmHg 57%
    14:00 +25°C° 0 mm 5 mps 750 mmHg 55%
    15:00 +23°C° 0 mm 5 mps 750 mmHg 57%
    16:00 +23°C° 0 mm 5 mps 751 mmHg 60%
    17:00 +22°C° 0 mm 5 mps 751 mmHg 62%
    18:00 +21°C° 0 mm 5 mps 751 mmHg 62%
    19:00 +20°C° 0 mm 6 mps 751 mmHg 62%
    20:00 +20°C° 0 mm 7 mps 752 mmHg 62%
    21:00 +18°C° 0 mm 7 mps 752 mmHg 62%
    22:00 +17°C° 0 mm 7 mps 752 mmHg 62%
    23:00 +16°C° 0 mm 7 mps 752 mmHg 61%

    Day after tomorrow, 23 September, Saturday

    Time Temperature Precipitation Wind Pressure Humidity
    00:00 +16°C° 0 mm 6 mps 753 mmHg 62%
    01:00 +15°C° 0 mm 6 mps 753 mmHg 63%
    02:00 +14°C° 0 mm 6 mps 753 mmHg 64%
    03:00 +14°C° 0 mm 6 mps 753 mmHg 63%
    04:00 +13°C° 0 mm 6 mps 753 mmHg 63%
    05:00 +13°C° 0 mm 6 mps 753 mmHg 63%
    06:00 +13°C° 0 mm 6 mps 754 mmHg 61%
    07:00 +13°C° 0 mm 6 mps 754 mmHg 60%
    08:00 +13°C° 0 mm 6 mps 754 mmHg 58%
    09:00 +15°C° 0 mm 6 mps 755 mmHg 56%
    10:00 +16°C° 0 mm 6 mps 755 mmHg 53%
    11:00 +17°C° 0 mm 6 mps 755 mmHg 50%
    12:00 +19°C° 0 mm 6 mps 755 mmHg 50%
    13:00 +19°C° 0 mm 6 mps 755 mmHg 50%
    14:00 +20°C° 0 mm 5 mps 755 mmHg 49%
    15:00 +20°C° 0 mm 5 mps 755 mmHg 53%
    16:00 +19°C° 0 mm 4 mps 755 mmHg 57%
    17:00 +18°C° 0 mm 4 mps 755 mmHg 60%
    18:00 +17°C° 0 mm 4 mps 755 mmHg 63%
    19:00 +15°C° 0 mm 4 mps 756 mmHg 66%
    20:00 +14°C° 0 mm 4 mps 756 mmHg 69%
    21:00 +14°C° 0 mm 4 mps 756 mmHg 70%
    22:00 +13°C° 0 mm 4 mps 756 mmHg 70%
    23:00 +13°C° 0 mm 4 mps 756 mmHg 71%

    24 September, Sunday

    Time Temperature Precipitation Wind Pressure Humidity
    00:00 +13°C° 0 mm 4 mps 756 mmHg 73%
    01:00 +12°C° 0 mm 4 mps 756 mmHg 74%
    02:00 +12°C° 0 mm 4 mps 756 mmHg 75%
    03:00 +12°C° 0 mm 4 mps 756 mmHg 73%
    04:00 +11°C° 0 mm 4 mps 756 mmHg 72%
    05:00 +10°C° 0 mm 5 mps 756 mmHg 71%
    06:00 +10°C° 0 mm 5 mps 756 mmHg 68%
    07:00 +12°C° 0 mm 5 mps 757 mmHg 66%
    08:00 +11°C° 0 mm 6 mps 757 mmHg 64%
    09:00 +14°C° 0 mm 6 mps 757 mmHg 60%
    10:00 +15°C° 0 mm 6 mps 757 mmHg 55%
    11:00 +16°C° 0 mm 6 mps 758 mmHg 51%
    12:00 +16°C° 0 mm 6 mps 758 mmHg 51%
    13:00 +17°C° 0 mm 6 mps 758 mmHg 50%
    14:00 +17°C° 0 mm 6 mps 758 mmHg 50%
    15:00 +16°C° 0 mm 5 mps 758 mmHg 52%
    16:00 +16°C° 0 mm 5 mps 758 mmHg 54%
    17:00 +15°C° 0 mm 4 mps 758 mmHg 57%
    18:00 +14°C° 0 mm 4 mps 758 mmHg 58%
    19:00 +14°C° 0 mm 4 mps 758 mmHg 59%
    20:00 +13°C° 0 mm 4 mps 759 mmHg 61%
    21:00 +13°C° 0 mm 4 mps 759 mmHg 62%
    22:00 +12°C° 0 mm 4 mps 759 mmHg 62%
    23:00 +12°C° 0 mm 4 mps 759 mmHg 63%

    25 September, Monday

    Time Temperature Precipitation Wind Pressure Humidity
    00:00 +12°C° 0 mm 4 mps 759 mmHg 64%
    01:00 +11°C° 0 mm 4 mps 759 mmHg 66%
    02:00 +11°C° 0 mm 4 mps 759 mmHg 67%
    03:00 +11°C° 0 mm 4 mps 759 mmHg 68%
    04:00 +10°C° 0 mm 4 mps 759 mmHg 70%
    05:00 +10°C° 0 mm 4 mps 759 mmHg 71%
    06:00 +10°C° 0 mm 4 mps 759 mmHg 70%
    07:00 +10°C° 0 mm 5 mps 759 mmHg 68%
    08:00 +12°C° 0 mm 5 mps 760 mmHg 67%
    09:00 +14°C° 0 mm 5 mps 760 mmHg 62%
    10:00 +15°C° 0 mm 5 mps 760 mmHg 58%
    11:00 +17°C° 0 mm 5 mps 760 mmHg 53%
    12:00 +19°C° 0 mm 5 mps 760 mmHg 51%
    13:00 +20°C° 0 mm 5 mps 760 mmHg 50%
    14:00 +21°C° 0 mm 5 mps 759 mmHg 48%
    15:00 +20°C° 0 mm 5 mps 759 mmHg 51%
    16:00 +19°C° 0 mm 4 mps 759 mmHg 55%
    17:00 +18°C° 0 mm 4 mps 759 mmHg 59%
    18:00 +17°C° 0 mm 4 mps 760 mmHg 61%
    19:00 +15°C° 0 mm 4 mps 760 mmHg 63%
    20:00 +14°C° 0 mm 4 mps 760 mmHg 65%
    21:00 +13°C° 0 mm 4 mps 760 mmHg 67%
    22:00 +13°C° 0 mm 4 mps 761 mmHg 68%
    23:00 +12°C° 0 mm 4 mps 761 mmHg 69%

    26 September, Tuesday

    Time Temperature Precipitation Wind Pressure Humidity
    00:00 +12°C° 0 mm 5 mps 761 mmHg 70%
    01:00 +12°C° 0 mm 5 mps 761 mmHg 70%
    02:00 +10°C° 0 mm 5 mps 761 mmHg 70%
    03:00 +10°C° 0 mm 5 mps 761 mmHg 70%
    04:00 +9°C° 0 mm 5 mps 761 mmHg 69%
    05:00 +9°C° 0 mm 5 mps 761 mmHg 68%
    06:00 +9°C° 0 mm 5 mps 762 mmHg 67%
    07:00 +9°C° 0 mm 5 mps 762 mmHg 66%
    08:00 +9°C° 0 mm 5 mps 762 mmHg 65%
    09:00 +12°C° 0 mm 5 mps 762 mmHg 60%
    10:00 +13°C° 0 mm 5 mps 762 mmHg 55%
    11:00 +15°C° 0 mm 5 mps 762 mmHg 51%
    12:00 +15°C° 0 mm 5 mps 762 mmHg 49%
    13:00 +16°C° 0 mm 5 mps 762 mmHg 47%
    14:00 +16°C° 0 mm 5 mps 762 mmHg 46%
    15:00 +15°C° 0 mm 5 mps 762 mmHg 50%
    16:00 +15°C° 0 mm 4 mps 762 mmHg 54%
    17:00 +14°C° 0 mm 4 mps 762 mmHg 58%
    18:00 +13°C° 0 mm 4 mps 762 mmHg 61%
    19:00 +12°C° 0 mm 4 mps 762 mmHg 64%
    20:00 +10°C° 0 mm 4 mps 763 mmHg 66%
    21:00 +10°C° 0 mm 4 mps 763 mmHg 66%
    22:00 +10°C° 0 mm 4 mps 763 mmHg 66%
    23:00 +8°C° 0 mm 4 mps 763 mmHg 66%
    Show more